Time,TemperatureF,DewpointF,PressureIn,WindDirection,WindDirectionDegrees,WindSpeedMPH,WindSpeedGustMPH,Humidity,HourlyPrecipIn,Conditions,Clouds,dailyrainin,SoftwareType,DateUTC
2013-11-02 00:04:00,53.0,27.4,30.06,WSW,238,0.0,0.0,37,0.00,,---,0.00,VWS V14.01,2013-11-02 07:04:00,
2013-11-02 00:09:00,53.3,27.0,30.06,WSW,249,0.0,0.0,36,0.00,,---,0.00,VWS V14.01,2013-11-02 07:09:00,
2013-11-02 00:14:00,53.5,27.2,30.06,WSW,252,0.0,0.0,36,0.00,,---,0.00,VWS V14.01,2013-11-02 07:14:00,
2013-11-02 00:19:00,53.6,27.3,30.06,WSW,246,0.0,0.0,36,0.00,,---,0.00,VWS V14.01,2013-11-02 07:19:00,
2013-11-02 00:24:00,53.3,27.0,30.06,WSW,245,0.0,0.0,36,0.00,,---,0.00,VWS V14.01,2013-11-02 07:24:00,
2013-11-02 00:29:00,53.6,27.3,30.06,WSW,253,0.0,0.0,36,0.00,,---,0.00,VWS V14.01,2013-11-02 07:29:00,
2013-11-02 00:34:00,53.4,27.1,30.06,SW,222,0.0,0.0,36,0.00,,---,0.00,VWS V14.01,2013-11-02 07:34:00,
2013-11-02 00:39:00,53.0,27.4,30.06,SSW,207,0.0,0.0,37,0.00,,---,0.00,VWS V14.01,2013-11-02 07:39:00,
2013-11-02 00:44:00,53.0,26.8,30.06,SW,219,0.0,0.0,36,0.00,,---,0.00,VWS V14.01,2013-11-02 07:44:00,
2013-11-02 00:49:00,53.2,27.0,30.06,SW,222,0.0,0.0,36,0.00,,---,0.00,VWS V14.01,2013-11-02 07:49:00,
2013-11-02 00:54:00,52.8,27.3,30.06,SW,219,0.0,0.0,37,0.00,,---,0.00,VWS V14.01,2013-11-02 07:54:00,
2013-11-02 00:59:00,52.3,27.5,30.06,SSW,205,0.0,0.0,38,0.00,,---,0.00,VWS V14.01,2013-11-02 07:59:00,
2013-11-02 01:04:00,52.4,27.6,30.05,SW,219,0.0,0.0,38,0.00,,---,0.00,VWS V14.01,2013-11-02 08:04:00,
2013-11-02 01:09:00,52.7,27.2,30.06,SW,226,0.0,0.0,37,0.00,,---,0.00,VWS V14.01,2013-11-02 08:09:00,
2013-11-02 01:14:00,52.7,27.2,30.06,SSW,193,0.0,0.0,37,0.00,,---,0.00,VWS V14.01,2013-11-02 08:14:00,
2013-11-02 01:19:00,52.6,27.1,30.06,SSW,201,0.0,0.0,37,0.00,,---,0.00,VWS V14.01,2013-11-02 08:19:00,
2013-11-02 01:24:00,52.2,27.4,30.06,SSE,165,0.0,0.0,38,0.00,,---,0.00,VWS V14.01,2013-11-02 08:24:00,
2013-11-02 01:29:00,52.1,27.3,30.06,South,177,0.0,0.0,38,0.00,,---,0.00,VWS V14.01,2013-11-02 08:29:00,
2013-11-02 01:34:00,52.4,27.6,30.06,SSW,197,0.0,0.0,38,0.00,,---,0.00,VWS V14.01,2013-11-02 08:34:00,
2013-11-02 01:39:00,52.0,27.8,30.06,SSE,167,0.0,0.0,39,0.00,,---,0.00,VWS V14.01,2013-11-02 08:39:00,
2013-11-02 01:44:00,51.5,27.4,30.06,SSE,150,0.0,0.0,39,0.00,,---,0.00,VWS V14.01,2013-11-02 08:44:00,
2013-11-02 01:49:00,51.0,28.1,30.06,SSE,155,0.0,0.0,41,0.00,,---,0.00,VWS V14.01,2013-11-02 08:49:00,
2013-11-02 01:54:00,50.7,27.9,30.06,SSE,159,0.0,0.0,41,0.00,,---,0.00,VWS V14.01,2013-11-02 08:54:00,
2013-11-02 01:59:00,50.3,28.1,30.05,South,173,0.0,0.0,42,0.00,,---,0.00,VWS V14.01,2013-11-02 08:59:00,
2013-11-02 02:04:00,49.9,28.3,30.05,South,169,0.0,0.0,43,0.00,,---,0.00,VWS V14.01,2013-11-02 09:04:00,
2013-11-02 02:09:00,49.7,28.1,30.05,South,169,0.0,0.0,43,0.00,,---,0.00,VWS V14.01,2013-11-02 09:09:00,
2013-11-02 02:14:00,49.3,28.3,30.05,South,169,0.0,0.0,44,0.00,,---,0.00,VWS V14.01,2013-11-02 09:14:00,
2013-11-02 02:19:00,49.4,28.4,30.05,South,179,0.0,0.0,44,0.00,,---,0.00,VWS V14.01,2013-11-02 09:19:00,
2013-11-02 02:24:00,49.2,28.2,30.05,SSE,166,0.0,0.0,44,0.00,,---,0.00,VWS V14.01,2013-11-02 09:24:00,
2013-11-02 02:29:00,49.0,28.6,30.05,South,176,0.0,0.0,45,0.00,,---,0.00,VWS V14.01,2013-11-02 09:29:00,
2013-11-02 02:34:00,49.3,28.3,30.04,South,176,0.0,0.0,44,0.00,,---,0.00,VWS V14.01,2013-11-02 09:34:00,
2013-11-02 02:39:00,49.0,28.6,30.04,South,170,0.0,0.0,45,0.00,,---,0.00,VWS V14.01,2013-11-02 09:39:00,
2013-11-02 02:44:00,48.9,28.5,30.04,South,181,0.0,0.0,45,0.00,,---,0.00,VWS V14.01,2013-11-02 09:44:00,
2013-11-02 02:49:00,49.3,28.3,30.04,SSW,198,0.0,0.0,44,0.00,,---,0.00,VWS V14.01,2013-11-02 09:49:00,
2013-11-02 02:54:00,49.7,28.1,30.04,SSW,198,0.0,0.0,43,0.00,,---,0.00,VWS V14.01,2013-11-02 09:54:00,
2013-11-02 02:59:00,49.8,28.2,30.04,South,188,2.0,2.0,43,0.00,,---,0.00,VWS V14.01,2013-11-02 09:59:00,
2013-11-02 03:04:00,50.0,28.4,30.04,SSW,192,3.0,3.0,43,0.00,,---,0.00,VWS V14.01,2013-11-02 10:04:00,
2013-11-02 03:09:00,50.1,28.5,30.04,South,188,2.0,3.0,43,0.00,,---,0.00,VWS V14.01,2013-11-02 10:09:00,
2013-11-02 03:14:00,50.0,28.4,30.03,South,171,0.0,0.0,43,0.00,,---,0.00,VWS V14.01,2013-11-02 10:14:00,
2013-11-02 03:19:00,50.1,28.5,30.04,South,175,0.0,1.0,43,0.00,,---,0.00,VWS V14.01,2013-11-02 10:19:00,
2013-11-02 03:24:00,50.0,28.4,30.03,SSE,162,0.0,1.0,43,0.00,,---,0.00,VWS V14.01,2013-11-02 10:24:00,
2013-11-02 03:29:00,49.6,28.6,30.03,SSE,162,0.0,0.0,44,0.00,,---,0.00,VWS V14.01,2013-11-02 10:29:00,
2013-11-02 03:34:00,49.5,28.5,30.03,SSE,158,0.0,0.0,44,0.00,,---,0.00,VWS V14.01,2013-11-02 10:34:00,
2013-11-02 03:40:00,49.2,28.2,30.03,SSE,165,0.0,0.0,44,0.00,,---,0.00,VWS V14.01,2013-11-02 10:40:00,
2013-11-02 03:45:00,48.8,28.4,30.03,SSE,152,0.0,0.0,45,0.00,,---,0.00,VWS V14.01,2013-11-02 10:45:00,
2013-11-02 03:50:00,48.9,28.5,30.03,SSE,162,0.0,0.0,45,0.00,,---,0.00,VWS V14.01,2013-11-02 10:50:00,
2013-11-02 03:55:00,48.5,28.7,30.03,SSE,165,0.0,0.0,46,0.00,,---,0.00,VWS V14.01,2013-11-02 10:55:00,
2013-11-02 04:00:00,48.3,28.5,30.03,SSE,166,0.0,0.0,46,0.00,,---,0.00,VWS V14.01,2013-11-02 11:00:00,
2013-11-02 04:05:00,48.3,29.0,30.03,South,173,0.0,0.0,47,0.00,,---,0.00,VWS V14.01,2013-11-02 11:05:00,
2013-11-02 04:10:00,47.7,29.0,30.03,South,178,0.0,0.0,48,0.00,,---,0.00,VWS V14.01,2013-11-02 11:10:00,
2013-11-02 04:15:00,47.4,28.7,30.02,SSE,166,2.0,2.0,48,0.00,,---,0.00,VWS V14.01,2013-11-02 11:15:00,
2013-11-02 04:20:00,47.1,28.9,30.03,SSE,152,0.0,2.0,49,0.00,,---,0.00,VWS V14.01,2013-11-02 11:20:00,
2013-11-02 04:25:00,46.7,29.1,30.02,SSE,167,0.0,2.0,50,0.00,,---,0.00,VWS V14.01,2013-11-02 11:25:00,
2013-11-02 04:30:00,46.2,29.1,30.03,South,186,1.0,1.0,51,0.00,,---,0.00,VWS V14.01,2013-11-02 11:30:00,
2013-11-02 04:35:00,45.7,29.1,30.02,South,183,1.0,1.0,52,0.00,,---,0.00,VWS V14.01,2013-11-02 11:35:00,
2013-11-02 04:40:00,45.7,29.1,30.02,SSE,163,1.0,1.0,52,0.00,,---,0.00,VWS V14.01,2013-11-02 11:40:00,
2013-11-02 04:45:00,45.9,28.8,30.02,SSE,162,1.0,1.0,51,0.00,,---,0.00,VWS V14.01,2013-11-02 11:45:00,
2013-11-02 04:50:00,45.7,29.1,30.02,SSE,156,0.0,1.0,52,0.00,,---,0.00,VWS V14.01,2013-11-02 11:50:00,
2013-11-02 04:55:00,45.8,29.2,30.02,SE,145,0.0,1.0,52,0.00,,---,0.00,VWS V14.01,2013-11-02 11:55:00,
2013-11-02 05:00:00,45.9,28.8,30.02,SE,145,0.0,0.0,51,0.00,,---,0.00,VWS V14.01,2013-11-02 12:00:00,
2013-11-02 05:05:00,45.9,28.8,30.01,SE,145,0.0,0.0,51,0.00,,---,0.00,VWS V14.01,2013-11-02 12:05:00,
2013-11-02 05:10:00,46.0,28.9,30.01,SE,145,0.0,0.0,51,0.00,,---,0.00,VWS V14.01,2013-11-02 12:10:00,
2013-11-02 05:15:00,45.5,28.4,30.01,SE,146,0.0,0.0,51,0.00,,---,0.00,VWS V14.01,2013-11-02 12:15:00,
2013-11-02 05:20:00,44.6,29.5,30.01,SE,145,0.0,0.0,55,0.00,,---,0.00,VWS V14.01,2013-11-02 12:20:00,
2013-11-02 05:25:00,44.0,29.3,30.01,SE,145,0.0,0.0,56,0.00,,---,0.00,VWS V14.01,2013-11-02 12:25:00,
2013-11-02 05:30:00,44.0,29.3,30.02,SE,145,0.0,0.0,56,0.00,,---,0.00,VWS V14.01,2013-11-02 12:30:00,
2013-11-02 05:35:00,44.5,29.8,30.01,SE,145,0.0,0.0,56,0.00,,---,0.00,VWS V14.01,2013-11-02 12:35:00,
2013-11-02 05:40:00,43.8,29.1,30.01,SSW,210,0.0,0.0,56,0.00,,---,0.00,VWS V14.01,2013-11-02 12:40:00,
2013-11-02 05:45:00,43.0,29.2,30.01,SSW,212,0.0,0.0,58,0.00,,---,0.00,VWS V14.01,2013-11-02 12:45:00,
2013-11-02 05:50:00,42.5,29.6,30.01,SSW,212,0.0,0.0,60,0.00,,---,0.00,VWS V14.01,2013-11-02 12:50:00,
2013-11-02 05:55:00,42.3,29.8,30.01,SSW,212,0.0,0.0,61,0.00,,---,0.00,VWS V14.01,2013-11-02 12:55:00,
2013-11-02 06:00:00,42.3,29.8,30.01,SSW,212,0.0,0.0,61,0.00,,---,0.00,VWS V14.01,2013-11-02 13:00:00,
2013-11-02 06:05:00,42.3,29.8,30.01,SSW,200,0.0,0.0,61,0.00,,---,0.00,VWS V14.01,2013-11-02 13:05:00,
2013-11-02 06:10:00,42.6,30.1,30.01,SSW,202,0.0,0.0,61,0.00,,---,0.00,VWS V14.01,2013-11-02 13:10:00,
2013-11-02 06:15:00,43.2,29.4,30.01,SSW,202,0.0,0.0,58,0.00,,---,0.00,VWS V14.01,2013-11-02 13:15:00,
2013-11-02 06:20:00,43.3,29.5,30.01,SSW,201,0.0,0.0,58,0.00,,---,0.00,VWS V14.01,2013-11-02 13:20:00,
2013-11-02 06:25:00,42.9,29.6,30.01,SSW,201,0.0,0.0,59,0.00,,---,0.00,VWS V14.01,2013-11-02 13:25:00,
2013-11-02 06:30:00,42.9,29.2,30.01,SSW,205,0.0,0.0,58,0.00,,---,0.00,VWS V14.01,2013-11-02 13:30:00,
2013-11-02 06:35:00,42.4,29.5,30.01,South,188,0.0,0.0,60,0.00,,---,0.00,VWS V14.01,2013-11-02 13:35:00,
2013-11-02 06:40:00,42.4,29.5,30.01,South,188,0.0,0.0,60,0.00,,---,0.00,VWS V14.01,2013-11-02 13:40:00,
2013-11-02 06:45:00,42.4,29.5,30.01,South,188,0.0,0.0,60,0.00,,---,0.00,VWS V14.01,2013-11-02 13:45:00,
2013-11-02 06:50:00,42.2,29.3,30.01,South,188,0.0,0.0,60,0.00,,---,0.00,VWS V14.01,2013-11-02 13:50:00,
2013-11-02 06:55:00,42.5,29.6,30.01,South,188,0.0,0.0,60,0.00,,---,0.00,VWS V14.01,2013-11-02 13:55:00,
2013-11-02 07:00:00,42.2,29.3,30.01,South,188,0.0,0.0,60,0.00,,---,0.00,VWS V14.01,2013-11-02 14:00:00,
2013-11-02 07:05:00,42.6,29.3,30.01,SSW,201,0.0,0.0,59,0.00,,---,0.00,VWS V14.01,2013-11-02 14:05:00,
2013-11-02 07:10:00,41.8,29.4,30.01,SSW,200,0.0,0.0,61,0.00,,---,0.00,VWS V14.01,2013-11-02 14:10:00,
2013-11-02 07:15:00,41.1,29.5,30.01,SSW,200,0.0,0.0,63,0.00,,---,0.00,VWS V14.01,2013-11-02 14:15:00,
2013-11-02 07:20:00,41.1,29.9,30.01,SSW,200,0.0,0.0,64,0.00,,---,0.00,VWS V14.01,2013-11-02 14:20:00,
2013-11-02 07:25:00,41.5,29.9,30.01,SSW,200,0.0,0.0,63,0.00,,---,0.00,VWS V14.01,2013-11-02 14:25:00,
2013-11-02 07:31:00,41.7,30.0,30.01,SSW,211,0.0,0.0,63,0.00,,---,0.00,VWS V14.01,2013-11-02 14:31:00,
2013-11-02 07:36:00,42.0,30.3,30.01,SW,219,0.0,0.0,63,0.00,,---,0.00,VWS V14.01,2013-11-02 14:36:00,
2013-11-02 07:41:00,42.4,30.7,30.01,SW,219,0.0,0.0,63,0.00,,---,0.00,VWS V14.01,2013-11-02 14:41:00,
2013-11-02 07:46:00,43.8,31.2,30.01,SW,218,0.0,0.0,61,0.00,,---,0.00,VWS V14.01,2013-11-02 14:46:00,
2013-11-02 07:51:00,45.3,31.4,30.01,SW,218,0.0,0.0,58,0.00,,---,0.00,VWS V14.01,2013-11-02 14:51:00,
2013-11-02 07:56:00,45.9,30.7,30.01,SW,219,0.0,0.0,55,0.00,,---,0.00,VWS V14.01,2013-11-02 14:56:00,
2013-11-02 08:01:00,46.4,30.7,30.01,SW,218,0.0,0.0,54,0.00,,---,0.00,VWS V14.01,2013-11-02 15:01:00,
2013-11-02 08:06:00,47.5,31.2,30.01,SW,218,0.0,0.0,53,0.00,,---,0.00,VWS V14.01,2013-11-02 15:06:00,
2013-11-02 08:11:00,47.9,31.1,30.01,SW,219,0.0,0.0,52,0.00,,---,0.00,VWS V14.01,2013-11-02 15:11:00,
2013-11-02 08:16:00,48.3,31.5,30.01,SW,218,0.0,0.0,52,0.00,,---,0.00,VWS V14.01,2013-11-02 15:16:00,
2013-11-02 08:21:00,48.7,31.4,30.01,SW,218,0.0,0.0,51,0.00,,---,0.00,VWS V14.01,2013-11-02 15:21:00,
2013-11-02 08:26:00,47.7,30.5,30.01,SW,218,0.0,0.0,51,0.00,,---,0.00,VWS V14.01,2013-11-02 15:26:00,
2013-11-02 08:31:00,47.1,30.4,30.01,SW,218,0.0,0.0,52,0.00,,---,0.00,VWS V14.01,2013-11-02 15:31:00,
2013-11-02 08:36:00,47.1,30.4,30.01,SW,218,0.0,0.0,52,0.00,,---,0.00,VWS V14.01,2013-11-02 15:36:00,
2013-11-02 08:41:00,47.1,30.4,30.01,North,353,0.0,0.0,52,0.00,,---,0.00,VWS V14.01,2013-11-02 15:41:00,
2013-11-02 08:46:00,47.5,30.8,30.01,North,353,0.0,0.0,52,0.00,,---,0.00,VWS V14.01,2013-11-02 15:46:00,
2013-11-02 08:51:00,48.7,31.4,30.01,North,352,0.0,0.0,51,0.00,,---,0.00,VWS V14.01,2013-11-02 15:51:00,
2013-11-02 08:56:00,50.4,31.5,30.01,NE,53,0.0,0.0,48,0.00,,---,0.00,VWS V14.01,2013-11-02 15:56:00,
2013-11-02 09:01:00,51.1,31.6,30.01,ESE,111,0.0,0.0,47,0.00,,---,0.00,VWS V14.01,2013-11-02 16:01:00,
2013-11-02 09:06:00,51.6,32.0,30.01,ESE,122,0.0,0.0,47,0.00,,---,0.00,VWS V14.01,2013-11-02 16:06:00,
2013-11-02 09:11:00,52.3,31.6,30.01,ENE,75,0.0,0.0,45,0.00,,---,0.00,VWS V14.01,2013-11-02 16:11:00,
2013-11-02 09:16:00,52.7,30.9,30.01,East,81,0.0,0.0,43,0.00,,---,0.00,VWS V14.01,2013-11-02 16:16:00,
2013-11-02 09:21:00,53.1,30.6,30.01,ENE,71,1.0,2.0,42,0.00,,---,0.00,VWS V14.01,2013-11-02 16:21:00,
2013-11-02 09:26:00,53.3,30.8,30.01,East,79,0.0,3.0,42,0.00,,---,0.00,VWS V14.01,2013-11-02 16:26:00,
2013-11-02 09:31:00,53.7,30.6,30.01,ENE,76,0.0,0.0,41,0.00,,---,0.00,VWS V14.01,2013-11-02 16:31:00,
2013-11-02 09:36:00,54.1,30.3,30.01,ENE,69,0.0,1.0,40,0.00,,---,0.00,VWS V14.01,2013-11-02 16:36:00,
2013-11-02 09:41:00,55.0,30.5,30.01,East,83,0.0,1.0,39,0.00,,---,0.00,VWS V14.01,2013-11-02 16:41:00,
2013-11-02 09:46:00,55.5,30.3,30.01,NE,37,0.0,0.0,38,0.00,,---,0.00,VWS V14.01,2013-11-02 16:46:00,
2013-11-02 09:51:00,56.0,30.1,30.00,East,84,0.0,0.0,37,0.00,,---,0.00,VWS V14.01,2013-11-02 16:51:00,
2013-11-02 09:56:00,56.4,29.8,30.00,ENE,63,0.0,0.0,36,0.00,,---,0.00,VWS V14.01,2013-11-02 16:56:00,
2013-11-02 10:01:00,56.7,30.1,30.00,ENE,61,0.0,0.0,36,0.00,,---,0.00,VWS V14.01,2013-11-02 17:01:00,
2013-11-02 10:06:00,57.0,30.3,30.00,NE,43,0.0,0.0,36,0.00,,---,0.00,VWS V14.01,2013-11-02 17:06:00,
2013-11-02 10:11:00,57.8,31.0,30.00,NE,44,0.0,0.0,36,0.00,,---,0.00,VWS V14.01,2013-11-02 17:11:00,
2013-11-02 10:16:00,58.2,30.7,30.00,NE,42,0.0,0.0,35,0.00,,---,0.00,VWS V14.01,2013-11-02 17:16:00,
2013-11-02 10:21:00,58.8,31.2,30.00,ENE,61,0.0,0.0,35,0.00,,---,0.00,VWS V14.01,2013-11-02 17:21:00,
2013-11-02 10:26:00,59.6,31.2,30.00,ESE,107,0.0,0.0,34,0.00,,---,0.00,VWS V14.01,2013-11-02 17:26:00,
2013-11-02 10:31:00,59.8,30.7,30.00,North,359,0.0,0.0,33,0.00,,---,0.00,VWS V14.01,2013-11-02 17:31:00,
2013-11-02 10:36:00,60.0,30.8,30.00,North,349,0.0,0.0,33,0.00,,---,0.00,VWS V14.01,2013-11-02 17:36:00,
2013-11-02 10:41:00,60.5,30.5,30.00,NE,44,0.0,0.0,32,0.00,,---,0.00,VWS V14.01,2013-11-02 17:41:00,
2013-11-02 10:46:00,61.1,31.0,30.00,SE,134,0.0,0.0,32,0.00,,---,0.00,VWS V14.01,2013-11-02 17:46:00,
2013-11-02 10:51:00,61.8,30.9,30.00,West,276,0.0,0.0,31,0.00,,---,0.00,VWS V14.01,2013-11-02 17:51:00,
2013-11-02 10:56:00,62.1,31.1,30.00,NE,43,0.0,0.0,31,0.00,,---,0.00,VWS V14.01,2013-11-02 17:56:00,
2013-11-02 11:01:00,63.0,30.3,30.00,North,3,1.0,2.0,29,0.00,,---,0.00,VWS V14.01,2013-11-02 18:01:00,
2013-11-02 11:06:00,63.4,30.6,29.99,NE,37,0.0,2.0,29,0.00,,---,0.00,VWS V14.01,2013-11-02 18:06:00,
2013-11-02 11:11:00,63.6,30.8,29.99,NNE,30,4.0,4.0,29,0.00,,---,0.00,VWS V14.01,2013-11-02 18:11:00,
2013-11-02 11:16:00,63.5,30.7,29.98,NNE,20,3.0,3.0,29,0.00,,---,0.00,VWS V14.01,2013-11-02 18:16:00,
2013-11-02 11:21:00,63.8,31.8,29.98,NW,316,2.0,4.0,30,0.00,,---,0.00,VWS V14.01,2013-11-02 18:21:00,
2013-11-02 11:26:00,63.9,31.0,29.98,WNW,287,1.0,4.0,29,0.00,,---,0.00,VWS V14.01,2013-11-02 18:26:00,
2013-11-02 11:31:00,64.2,30.4,29.98,NNW,348,1.0,3.0,28,0.00,,---,0.00,VWS V14.01,2013-11-02 18:31:00,
2013-11-02 11:36:00,64.5,30.7,29.97,NNW,338,0.0,3.0,28,0.00,,---,0.00,VWS V14.01,2013-11-02 18:36:00,
2013-11-02 11:41:00,65.0,31.1,29.97,NNW,340,3.0,3.0,28,0.00,,---,0.00,VWS V14.01,2013-11-02 18:41:00,
2013-11-02 11:46:00,65.3,31.4,29.97,NW,316,1.0,2.0,28,0.00,,---,0.00,VWS V14.01,2013-11-02 18:46:00,
2013-11-02 11:51:00,65.4,30.6,29.97,NE,44,2.0,4.0,27,0.00,,---,0.00,VWS V14.01,2013-11-02 18:51:00,
2013-11-02 11:56:00,65.6,30.8,29.97,NE,46,3.0,4.0,27,0.00,,---,0.00,VWS V14.01,2013-11-02 18:56:00,
2013-11-02 12:01:00,66.1,31.2,29.96,WNW,288,0.0,2.0,27,0.00,,---,0.00,VWS V14.01,2013-11-02 19:01:00,
2013-11-02 12:06:00,66.2,31.3,29.96,NW,312,0.0,4.0,27,0.00,,---,0.00,VWS V14.01,2013-11-02 19:06:00,
2013-11-02 12:11:00,66.6,29.7,29.95,NE,51,0.0,4.0,25,0.00,,---,0.00,VWS V14.01,2013-11-02 19:11:00,
2013-11-02 12:16:00,66.8,30.8,29.95,WNW,301,0.0,1.0,26,0.00,,---,0.00,VWS V14.01,2013-11-02 19:16:00,
2013-11-02 12:21:00,67.2,31.2,29.95,North,5,0.0,2.0,26,0.00,,---,0.00,VWS V14.01,2013-11-02 19:21:00,
2013-11-02 12:27:00,67.6,30.6,29.94,NW,316,0.0,4.0,25,0.00,,---,0.00,VWS V14.01,2013-11-02 19:27:00,
2013-11-02 12:32:00,67.6,29.6,29.94,WNW,297,1.0,4.0,24,0.00,,---,0.00,VWS V14.01,2013-11-02 19:32:00,
2013-11-02 12:37:00,67.7,29.6,29.94,NNE,14,2.0,5.0,24,0.00,,---,0.00,VWS V14.01,2013-11-02 19:37:00,
2013-11-02 12:42:00,68.2,30.1,29.94,WNW,303,4.0,5.0,24,0.00,,---,0.00,VWS V14.01,2013-11-02 19:42:00,
2013-11-02 12:47:00,68.7,31.5,29.93,NE,41,3.0,3.0,25,0.00,,---,0.00,VWS V14.01,2013-11-02 19:47:00,
2013-11-02 12:52:00,69.1,29.8,29.93,NNE,21,6.0,7.0,23,0.00,,---,0.00,VWS V14.01,2013-11-02 19:52:00,
2013-11-02 12:57:00,69.1,28.7,29.92,NE,49,0.0,7.0,22,0.00,,---,0.00,VWS V14.01,2013-11-02 19:57:00,
2013-11-02 13:02:00,69.5,30.1,29.92,NE,53,3.0,3.0,23,0.00,,---,0.00,VWS V14.01,2013-11-02 20:02:00,
2013-11-02 13:07:00,69.7,30.3,29.91,WSW,255,1.0,3.0,23,0.00,,---,0.00,VWS V14.01,2013-11-02 20:07:00,
2013-11-02 13:12:00,69.8,29.3,29.91,NE,48,4.0,6.0,22,0.00,,---,0.00,VWS V14.01,2013-11-02 20:12:00,
2013-11-02 13:17:00,69.5,29.0,29.90,ENE,59,0.0,4.0,22,0.00,,---,0.00,VWS V14.01,2013-11-02 20:17:00,
2013-11-02 13:22:00,69.9,29.4,29.90,WNW,284,0.0,4.0,22,0.00,,---,0.00,VWS V14.01,2013-11-02 20:22:00,
2013-11-02 13:27:00,70.7,30.0,29.90,NW,307,2.0,4.0,22,0.00,,---,0.00,VWS V14.01,2013-11-02 20:27:00,
2013-11-02 13:32:00,70.4,29.8,29.90,NW,312,0.0,5.0,22,0.00,,---,0.00,VWS V14.01,2013-11-02 20:32:00,
2013-11-02 13:37:00,71.1,30.4,29.89,NNW,328,0.0,5.0,22,0.00,,---,0.00,VWS V14.01,2013-11-02 20:37:00,
2013-11-02 13:42:00,71.6,30.8,29.89,NNE,23,3.0,5.0,22,0.00,,---,0.00,VWS V14.01,2013-11-02 20:42:00,
2013-11-02 13:47:00,71.4,29.5,29.89,West,281,1.0,6.0,21,0.00,,---,0.00,VWS V14.01,2013-11-02 20:47:00,
2013-11-02 13:52:00,71.7,28.5,29.88,NNW,328,0.0,6.0,20,0.00,,---,0.00,VWS V14.01,2013-11-02 20:52:00,
2013-11-02 13:57:00,71.8,28.6,29.88,NNE,26,0.0,6.0,20,0.00,,---,0.00,VWS V14.01,2013-11-02 20:57:00,
2013-11-02 14:02:00,71.8,28.6,29.88,WNW,288,0.0,3.0,20,0.00,,---,0.00,VWS V14.01,2013-11-02 21:02:00,
2013-11-02 14:07:00,72.1,28.9,29.88,West,281,1.0,6.0,20,0.00,,---,0.00,VWS V14.01,2013-11-02 21:07:00,
2013-11-02 14:12:00,72.0,28.8,29.88,North,349,2.0,6.0,20,0.00,,---,0.00,VWS V14.01,2013-11-02 21:12:00,
2013-11-02 14:17:00,71.9,28.7,29.87,WNW,285,0.0,5.0,20,0.00,,---,0.00,VWS V14.01,2013-11-02 21:17:00,
2013-11-02 14:22:00,72.2,28.9,29.87,NNW,328,1.0,5.0,20,0.00,,---,0.00,VWS V14.01,2013-11-02 21:22:00,
2013-11-02 14:27:00,72.3,27.8,29.87,NNE,16,3.0,6.0,19,0.00,,---,0.00,VWS V14.01,2013-11-02 21:27:00,
2013-11-02 14:32:00,72.2,28.9,29.86,NNE,25,3.0,4.0,20,0.00,,---,0.00,VWS V14.01,2013-11-02 21:32:00,
2013-11-02 14:37:00,72.6,29.3,29.86,SW,218,0.0,4.0,20,0.00,,---,0.00,VWS V14.01,2013-11-02 21:37:00,
2013-11-02 14:42:00,73.6,30.1,29.86,WSW,256,0.0,4.0,20,0.00,,---,0.00,VWS V14.01,2013-11-02 21:42:00,
2013-11-02 14:47:00,74.6,29.7,29.86,ESE,105,1.0,1.0,19,0.00,,---,0.00,VWS V14.01,2013-11-02 21:47:00,
2013-11-02 14:52:00,74.2,29.3,29.85,SE,135,0.0,1.0,19,0.00,,---,0.00,VWS V14.01,2013-11-02 21:52:00,
2013-11-02 14:57:00,74.5,29.6,29.85,SSE,160,0.0,2.0,19,0.00,,---,0.00,VWS V14.01,2013-11-02 21:57:00,
2013-11-02 15:02:00,74.6,29.7,29.85,SE,128,0.0,0.0,19,0.00,,---,0.00,VWS V14.01,2013-11-02 22:02:00,
2013-11-02 15:07:00,74.7,28.4,29.84,NE,44,4.0,7.0,18,0.00,,---,0.00,VWS V14.01,2013-11-02 22:07:00,
2013-11-02 15:12:00,73.7,28.9,29.84,SE,124,1.0,7.0,19,0.00,,---,0.00,VWS V14.01,2013-11-02 22:12:00,
2013-11-02 15:17:00,73.8,29.0,29.84,East,82,0.0,6.0,19,0.00,,---,0.00,VWS V14.01,2013-11-02 22:17:00,
2013-11-02 15:22:00,73.9,29.1,29.84,North,351,0.0,6.0,19,0.00,,---,0.00,VWS V14.01,2013-11-02 22:22:00,
2013-11-02 15:27:00,73.8,29.0,29.84,West,277,0.0,6.0,19,0.00,,---,0.00,VWS V14.01,2013-11-02 22:27:00,
2013-11-02 15:32:00,73.9,29.1,29.83,NE,53,0.0,1.0,19,0.00,,---,0.00,VWS V14.01,2013-11-02 22:32:00,
2013-11-02 15:37:00,74.1,29.2,29.84,ESE,102,0.0,1.0,19,0.00,,---,0.00,VWS V14.01,2013-11-02 22:37:00,
2013-11-02 15:42:00,74.7,28.4,29.83,East,92,0.0,1.0,18,0.00,,---,0.00,VWS V14.01,2013-11-02 22:42:00,
2013-11-02 15:47:00,75.0,28.7,29.83,SW,222,0.0,0.0,18,0.00,,---,0.00,VWS V14.01,2013-11-02 22:47:00,
2013-11-02 15:53:00,74.9,28.6,29.83,NNE,13,3.0,5.0,18,0.00,,---,0.00,VWS V14.01,2013-11-02 22:53:00,
2013-11-02 15:58:00,74.4,28.2,29.83,NNE,13,0.0,5.0,18,0.00,,---,0.00,VWS V14.01,2013-11-02 22:58:00,
2013-11-02 16:03:00,74.3,28.1,29.83,NNW,333,0.0,1.0,18,0.00,,---,0.00,VWS V14.01,2013-11-02 23:03:00,
2013-11-02 16:08:00,74.5,28.2,29.83,NW,317,0.0,1.0,18,0.00,,---,0.00,VWS V14.01,2013-11-02 23:08:00,
2013-11-02 16:13:00,74.8,28.5,29.82,NNE,20,2.0,2.0,18,0.00,,---,0.00,VWS V14.01,2013-11-02 23:13:00,
2013-11-02 16:18:00,74.9,28.6,29.82,South,189,0.0,0.0,18,0.00,,---,0.00,VWS V14.01,2013-11-02 23:18:00,
2013-11-02 16:23:00,75.9,29.4,29.82,SSE,150,2.0,4.0,18,0.00,,---,0.00,VWS V14.01,2013-11-02 23:23:00,
2013-11-02 16:28:00,76.4,28.4,29.82,SSE,155,3.0,4.0,17,0.00,,---,0.00,VWS V14.01,2013-11-02 23:28:00,
2013-11-02 16:33:00,76.1,29.6,29.82,WNW,294,3.0,8.0,18,0.00,,---,0.00,VWS V14.01,2013-11-02 23:33:00,
2013-11-02 16:38:00,75.4,30.3,29.82,SW,226,7.0,12.0,19,0.00,,---,0.00,VWS V14.01,2013-11-02 23:38:00,
2013-11-02 16:43:00,75.0,31.2,29.82,WSW,238,13.0,14.0,20,0.00,,---,0.00,VWS V14.01,2013-11-02 23:43:00,
2013-11-02 16:48:00,74.5,30.8,29.82,South,179,8.0,17.0,20,0.00,,---,0.00,VWS V14.01,2013-11-02 23:48:00,
2013-11-02 16:53:00,74.1,31.7,29.82,SSW,210,14.0,17.0,21,0.00,,---,0.00,VWS V14.01,2013-11-02 23:53:00,
2013-11-02 16:58:00,73.6,31.3,29.82,SE,129,5.0,21.0,21,0.00,,---,0.00,VWS V14.01,2013-11-02 23:58:00,
2013-11-02 17:03:00,73.4,31.1,29.82,SSW,205,8.0,15.0,21,0.00,,---,0.00,VWS V14.01,2013-11-03 00:03:00,
2013-11-02 17:08:00,73.1,32.0,29.82,SSW,198,7.0,17.0,22,0.00,,---,0.00,VWS V14.01,2013-11-03 00:08:00,
2013-11-02 17:13:00,72.9,31.9,29.82,South,184,14.0,19.0,22,0.00,,---,0.00,VWS V14.01,2013-11-03 00:13:00,
2013-11-02 17:18:00,72.5,31.5,29.82,WSW,240,5.0,19.0,22,0.00,,---,0.00,VWS V14.01,2013-11-03 00:18:00,
2013-11-02 17:23:00,72.2,31.3,29.82,SW,219,15.0,20.0,22,0.00,,---,0.00,VWS V14.01,2013-11-03 00:23:00,
2013-11-02 17:28:00,71.8,32.0,29.82,SW,217,17.0,20.0,23,0.00,,---,0.00,VWS V14.01,2013-11-03 00:28:00,
2013-11-02 17:33:00,71.6,31.9,29.82,SSW,212,13.0,18.0,23,0.00,,---,0.00,VWS V14.01,2013-11-03 00:33:00,
2013-11-02 17:38:00,70.9,31.3,29.82,SSW,195,14.0,20.0,23,0.00,,---,0.00,VWS V14.01,2013-11-03 00:38:00,
2013-11-02 17:43:00,70.4,30.9,29.82,SW,233,11.0,20.0,23,0.00,,---,0.00,VWS V14.01,2013-11-03 00:43:00,
2013-11-02 17:49:00,70.0,30.5,29.82,SSW,210,16.0,19.0,23,0.00,,---,0.00,VWS V14.01,2013-11-03 00:49:00,
2013-11-02 17:54:00,69.6,30.2,29.82,SSW,201,12.0,19.0,23,0.00,,---,0.00,VWS V14.01,2013-11-03 00:54:00,
2013-11-02 17:59:00,69.3,29.9,29.83,SW,222,14.0,20.0,23,0.00,,---,0.00,VWS V14.01,2013-11-03 00:59:00,
2013-11-02 18:04:00,68.9,30.6,29.83,SSW,212,13.0,20.0,24,0.00,,---,0.00,VWS V14.01,2013-11-03 01:04:00,
2013-11-02 18:09:00,68.6,30.4,29.83,SW,222,11.0,20.0,24,0.00,,---,0.00,VWS V14.01,2013-11-03 01:09:00,
2013-11-02 18:14:00,68.4,30.2,29.84,SW,220,13.0,13.0,24,0.00,,---,0.00,VWS V14.01,2013-11-03 01:14:00,
2013-11-02 18:19:00,68.1,30.0,29.84,SW,233,11.0,17.0,24,0.00,,---,0.00,VWS V14.01,2013-11-03 01:19:00,
2013-11-02 18:24:00,67.7,29.6,29.83,SSW,195,13.0,17.0,24,0.00,,---,0.00,VWS V14.01,2013-11-03 01:24:00,
2013-11-02 18:29:00,67.5,29.5,29.84,SW,214,12.0,12.0,24,0.00,,---,0.00,VWS V14.01,2013-11-03 01:29:00,
2013-11-02 18:34:00,67.3,29.3,29.83,SSW,201,15.0,18.0,24,0.00,,---,0.00,VWS V14.01,2013-11-03 01:34:00,
2013-11-02 18:39:00,67.2,29.2,29.83,SW,226,10.0,22.0,24,0.00,,---,0.00,VWS V14.01,2013-11-03 01:39:00,
2013-11-02 18:44:00,66.9,29.0,29.84,SSW,200,7.0,9.0,24,0.00,,---,0.00,VWS V14.01,2013-11-03 01:44:00,
2013-11-02 18:49:00,66.6,28.7,29.84,SSW,210,9.0,14.0,24,0.00,,---,0.00,VWS V14.01,2013-11-03 01:49:00,
2013-11-02 18:54:00,66.2,28.4,29.85,South,173,4.0,14.0,24,0.00,,---,0.00,VWS V14.01,2013-11-03 01:54:00,
2013-11-02 18:59:00,65.9,28.1,29.84,SW,217,9.0,12.0,24,0.00,,---,0.00,VWS V14.01,2013-11-03 01:59:00,
2013-11-02 19:04:00,65.7,29.0,29.84,WSW,253,11.0,15.0,25,0.00,,---,0.00,VWS V14.01,2013-11-03 02:04:00,
2013-11-02 19:09:00,65.4,28.7,29.84,SSE,158,6.0,17.0,25,0.00,,---,0.00,VWS V14.01,2013-11-03 02:09:00,
2013-11-02 19:14:00,65.2,28.5,29.84,SW,225,7.0,10.0,25,0.00,,---,0.00,VWS V14.01,2013-11-03 02:14:00,
2013-11-02 19:19:00,65.2,28.5,29.84,SW,222,10.0,20.0,25,0.00,,---,0.00,VWS V14.01,2013-11-03 02:19:00,
2013-11-02 19:24:00,65.1,28.4,29.84,SW,224,15.0,20.0,25,0.00,,---,0.00,VWS V14.01,2013-11-03 02:24:00,
2013-11-02 19:29:00,64.9,28.3,29.84,SW,219,17.0,17.0,25,0.00,,---,0.00,VWS V14.01,2013-11-03 02:29:00,
2013-11-02 19:34:00,64.7,29.0,29.84,SW,219,13.0,17.0,26,0.00,,---,0.00,VWS V14.01,2013-11-03 02:34:00,
2013-11-02 19:39:00,64.5,28.9,29.84,WSW,243,8.0,19.0,26,0.00,,---,0.00,VWS V14.01,2013-11-03 02:39:00,
2013-11-02 19:44:00,64.3,29.6,29.84,SW,232,9.0,12.0,27,0.00,,---,0.00,VWS V14.01,2013-11-03 02:44:00,
2013-11-02 19:49:00,64.2,29.5,29.84,SSW,213,11.0,13.0,27,0.00,,---,0.00,VWS V14.01,2013-11-03 02:49:00,
2013-11-02 19:54:00,64.1,30.4,29.84,SW,214,11.0,14.0,28,0.00,,---,0.00,VWS V14.01,2013-11-03 02:54:00,
2013-11-02 19:59:00,64.1,30.4,29.84,SW,236,10.0,12.0,28,0.00,,---,0.00,VWS V14.01,2013-11-03 02:59:00,
2013-11-02 20:04:00,64.1,30.4,29.84,SW,215,6.0,12.0,28,0.00,,---,0.00,VWS V14.01,2013-11-03 03:04:00,
2013-11-02 20:09:00,64.0,30.3,29.84,South,184,11.0,14.0,28,0.00,,---,0.00,VWS V14.01,2013-11-03 03:09:00,
2013-11-02 20:14:00,63.9,30.2,29.84,SSW,195,11.0,12.0,28,0.00,,---,0.00,VWS V14.01,2013-11-03 03:14:00,
2013-11-02 20:19:00,63.8,30.1,29.84,SW,225,8.0,17.0,28,0.00,,---,0.00,VWS V14.01,2013-11-03 03:19:00,
2013-11-02 20:24:00,63.8,30.1,29.84,SW,217,7.0,17.0,28,0.00,,---,0.00,VWS V14.01,2013-11-03 03:24:00,
2013-11-02 20:29:00,63.6,30.8,29.84,South,188,10.0,10.0,29,0.00,,---,0.00,VWS V14.01,2013-11-03 03:29:00,
2013-11-02 20:34:00,63.5,30.7,29.84,SW,236,11.0,11.0,29,0.00,,---,0.00,VWS V14.01,2013-11-03 03:34:00,
2013-11-02 20:39:00,63.5,30.7,29.84,SSW,203,4.0,14.0,29,0.00,,---,0.00,VWS V14.01,2013-11-03 03:39:00,
2013-11-02 20:44:00,63.5,30.7,29.84,WSW,246,13.0,13.0,29,0.00,,---,0.00,VWS V14.01,2013-11-03 03:44:00,
2013-11-02 20:49:00,63.6,30.8,29.84,SSW,212,6.0,13.0,29,0.00,,---,0.00,VWS V14.01,2013-11-03 03:49:00,
2013-11-02 20:54:00,63.6,30.8,29.84,SW,218,11.0,13.0,29,0.00,,---,0.00,VWS V14.01,2013-11-03 03:54:00,
2013-11-02 21:00:00,63.7,30.9,29.84,SSE,158,4.0,13.0,29,0.00,,---,0.00,VWS V14.01,2013-11-03 04:00:00,
2013-11-02 21:02:00,63.7,30.9,29.84,South,188,5.0,13.0,29,0.00,,---,0.00,VWS V14.01,2013-11-03 04:02:00,
2013-11-02 21:04:00,63.7,30.9,29.84,SSW,203,5.0,13.0,29,0.00,,---,0.00,VWS V14.01,2013-11-03 04:04:00,
2013-11-02 21:05:00,63.7,30.9,29.84,SSW,201,8.0,13.0,29,0.00,,---,0.00,VWS V14.01,2013-11-03 04:05:00,
2013-11-02 21:07:00,63.7,30.9,29.84,SSW,207,4.0,13.0,29,0.00,,---,0.00,VWS V14.01,2013-11-03 04:07:00,
2013-11-02 21:08:00,63.7,30.9,29.84,SSW,204,10.0,13.0,29,0.00,,---,0.00,VWS V14.01,2013-11-03 04:08:00,
2013-11-02 21:13:00,63.8,31.0,29.84,SSW,205,8.0,13.0,29,0.00,,---,0.00,VWS V14.01,2013-11-03 04:13:00,
2013-11-02 21:18:00,63.7,30.0,29.84,SSW,211,10.0,10.0,28,0.00,,---,0.00,VWS V14.01,2013-11-03 04:18:00,
2013-11-02 21:23:00,63.6,29.9,29.84,SSE,165,7.0,12.0,28,0.00,,---,0.00,VWS V14.01,2013-11-03 04:23:00,
2013-11-02 21:28:00,63.3,29.7,29.84,SSW,205,6.0,12.0,28,0.00,,---,0.00,VWS V14.01,2013-11-03 04:28:00,
2013-11-02 21:33:00,63.2,29.6,29.84,South,183,5.0,10.0,28,0.00,,---,0.00,VWS V14.01,2013-11-03 04:33:00,
2013-11-02 21:38:00,63.1,29.5,29.84,SSW,198,9.0,13.0,28,0.00,,---,0.00,VWS V14.01,2013-11-03 04:38:00,
2013-11-02 21:43:00,63.1,30.4,29.83,SSE,168,6.0,14.0,29,0.00,,---,0.00,VWS V14.01,2013-11-03 04:43:00,
2013-11-02 21:48:00,63.1,30.4,29.83,WSW,246,5.0,10.0,29,0.00,,---,0.00,VWS V14.01,2013-11-03 04:48:00,
2013-11-02 21:53:00,63.1,30.4,29.83,SSW,195,1.0,12.0,29,0.00,,---,0.00,VWS V14.01,2013-11-03 04:53:00,
2013-11-02 21:58:00,63.0,30.3,29.83,SW,228,11.0,12.0,29,0.00,,---,0.00,VWS V14.01,2013-11-03 04:58:00,
2013-11-02 22:03:00,63.2,29.6,29.83,SSW,195,7.0,11.0,28,0.00,,---,0.00,VWS V14.01,2013-11-03 05:03:00,
2013-11-02 22:08:00,63.3,29.7,29.83,SSW,200,6.0,14.0,28,0.00,,---,0.00,VWS V14.01,2013-11-03 05:08:00,
2013-11-02 22:13:00,63.3,29.7,29.83,SW,236,8.0,14.0,28,0.00,,---,0.00,VWS V14.01,2013-11-03 05:13:00,
2013-11-02 22:18:00,63.3,29.7,29.83,SSW,213,9.0,11.0,28,0.00,,---,0.00,VWS V14.01,2013-11-03 05:18:00,
2013-11-02 22:23:00,63.2,29.6,29.83,South,173,5.0,11.0,28,0.00,,---,0.00,VWS V14.01,2013-11-03 05:23:00,
2013-11-02 22:28:00,62.9,29.3,29.83,SW,217,4.0,11.0,28,0.00,,---,0.00,VWS V14.01,2013-11-03 05:28:00,
2013-11-02 22:34:00,62.8,29.2,29.83,South,179,6.0,12.0,28,0.00,,---,0.00,VWS V14.01,2013-11-03 05:34:00,
2013-11-02 22:39:00,62.9,29.3,29.84,SW,229,8.0,16.0,28,0.00,,---,0.00,VWS V14.01,2013-11-03 05:39:00,
2013-11-02 22:44:00,62.8,29.2,29.84,SW,214,8.0,8.0,28,0.00,,---,0.00,VWS V14.01,2013-11-03 05:44:00,
2013-11-02 22:49:00,62.6,29.9,29.83,SSW,212,2.0,9.0,29,0.00,,---,0.00,VWS V14.01,2013-11-03 05:49:00,
2013-11-02 22:54:00,62.5,29.8,29.83,SSW,207,5.0,11.0,29,0.00,,---,0.00,VWS V14.01,2013-11-03 05:54:00,
2013-11-02 22:59:00,62.5,29.8,29.83,SW,219,7.0,7.0,29,0.00,,---,0.00,VWS V14.01,2013-11-03 05:59:00,
2013-11-02 23:04:00,62.3,29.7,29.83,SSW,200,6.0,11.0,29,0.00,,---,0.00,VWS V14.01,2013-11-03 06:04:00,
2013-11-02 23:09:00,62.1,29.5,29.83,SW,214,7.0,14.0,29,0.00,,---,0.00,VWS V14.01,2013-11-03 06:09:00,
2013-11-02 23:14:00,62.1,29.5,29.83,SSW,198,5.0,7.0,29,0.00,,---,0.00,VWS V14.01,2013-11-03 06:14:00,
2013-11-02 23:19:00,62.1,29.5,29.83,SSE,166,3.0,10.0,29,0.00,,---,0.00,VWS V14.01,2013-11-03 06:19:00,
2013-11-02 23:24:00,62.1,29.5,29.83,South,177,1.0,10.0,29,0.00,,---,0.00,VWS V14.01,2013-11-03 06:24:00,
2013-11-02 23:29:00,62.2,29.6,29.83,SW,221,4.0,8.0,29,0.00,,---,0.00,VWS V14.01,2013-11-03 06:29:00,
2013-11-02 23:34:00,62.2,29.6,29.83,SW,219,8.0,11.0,29,0.00,,---,0.00,VWS V14.01,2013-11-03 06:34:00,
2013-11-02 23:39:00,62.2,29.6,29.83,SW,214,7.0,12.0,29,0.00,,---,0.00,VWS V14.01,2013-11-03 06:39:00,
2013-11-02 23:44:00,62.2,30.4,29.83,WNW,293,3.0,5.0,30,0.00,,---,0.00,VWS V14.01,2013-11-03 06:44:00,
2013-11-02 23:49:00,62.2,29.6,29.83,South,191,6.0,11.0,29,0.00,,---,0.00,VWS V14.01,2013-11-03 06:49:00,
2013-11-02 23:54:00,62.5,29.8,29.83,SSW,205,4.0,11.0,29,0.00,,---,0.00,VWS V14.01,2013-11-03 06:54:00,
2013-11-02 23:59:00,62.4,29.8,29.83,SSW,201,0.0,0.0,29,0.00,,---,0.00,VWS V14.01,2013-11-03 06:59:00,